Weather History for Tampa Macdill AFB, FL

Change the Weather History Date:

Saturday, December 1, 2012

  Actual Average Record
Temperature  
Mean Temperature 66 °F -  
Max Temperature 80 °F 73 °F 82 °F (2001)
Min Temperature 53 °F 54 °F 42 °F (1999)
Cooling Degree Days 2    
Growing Degree Days 16 (Base 50)    
Moisture  
Dew Point 58 °F    
Average Humidity 80    
Maximum Humidity 99    
Minimum Humidity 48    
Precipitation  
Precipitation 0.00 in - - ()
Sea Level Pressure  
Sea Level Pressure 30.22 in    
Wind  
Wind Speed 8 mph (ENE)    
Max Wind Speed 15 mph    
Max Gust Speed -    
Visibility 10 miles    
Events      
Averages and records for this station are not official NWS values.
T = Trace of Precipitation, MM = Missing Value Source: NWS Daily Summary

Daily Weather History Graph

Daily Weather History Graph

Search for Another Location

Airport:

Trip Planner

Search our weather history database for the weather conditions in past years. The results will help you decide how hot, cold, wet, or windy it might be!

Date:

Astronomy

Dec. 01, 2012 Rise Set
Actual Time 7:04 AM EST 5:34 PM EST
Civil Twilight 6:38 AM EST 5:59 PM EST
Nautical Twilight 6:09 AM EST 6:28 PM EST
Astronomical Twilight 5:41 AM EST 6:57 PM EST
Moon 8:19 PM EST (12/1) 9:19 AM EST (12/1)
Length of Visible Light 11h 21m
Length of Day
10h 30m
Waning Gibbous, 92% of the Moon is Illuminated
Dec 1
Waning Gibbous
Dec 6
Last Quarter
Dec 13
New
Dec 20
First Quarter
Dec 28
Full

Hourly Weather History & Observations

Time (EST) Temp. Heat Index Dew Point Humidity Pressure Visibility Wind Dir Wind Speed Gust Speed Precip Events Conditions
12:55 AM 55.8 °F - 53.2 °F 91% 30.21 in 10.0 mi ENE 6.9 mph - N/A   Clear
1:55 AM 56.3 °F - 54.7 °F 94% 30.21 in 10.0 mi ENE 6.9 mph - N/A   Clear
2:55 AM 55.4 °F - 53.6 °F 94% 30.20 in 10.0 mi ENE 6.9 mph - N/A   Clear
3:55 AM 54.5 °F - 53.2 °F 96% 30.20 in 10.0 mi ENE 6.9 mph - N/A   Clear
4:55 AM 54.1 °F - 54.0 °F 99% 30.20 in 10.0 mi ENE 8.1 mph - N/A   Clear
5:55 AM 53.8 °F - 53.4 °F 99% 30.21 in 10.0 mi ENE 8.1 mph - N/A   Clear
6:55 AM 55.6 °F - 55.2 °F 99% 30.22 in 10.0 mi NE 5.8 mph - N/A   Clear
7:55 AM 57.7 °F - 57.4 °F 99% 30.25 in 10.0 mi NE 3.5 mph - N/A   Clear
8:55 AM 64.6 °F - 64.4 °F 99% 30.26 in 10.0 mi ENE 9.2 mph - N/A   Clear
9:55 AM 71.1 °F - 63.9 °F 78% 30.27 in 10.0 mi ENE 8.1 mph - N/A   Clear
10:55 AM 74.5 °F - 63.3 °F 68% 30.27 in 10.0 mi ENE 9.2 mph - N/A   Clear
11:55 AM 77.2 °F - 62.6 °F 61% 30.25 in 10.0 mi East 11.5 mph - N/A   Clear
12:55 PM 79.3 °F - 61.2 °F 54% 30.22 in 10.0 mi ENE 11.5 mph - N/A   Clear
1:55 PM 80.1 °F 80.8 °F 59.4 °F 49% 30.20 in 10.0 mi ENE 10.4 mph - N/A   Partly Cloudy
2:55 PM 80.2 °F 80.8 °F 59.2 °F 48% 30.18 in 10.0 mi ENE 9.2 mph - N/A   Clear
3:55 PM 79.3 °F - 58.8 °F 49% 30.18 in 10.0 mi ENE 12.7 mph - N/A   Clear
4:55 PM 75.9 °F - 61.0 °F 60% 30.19 in 10.0 mi East 15.0 mph - N/A   Clear
5:55 PM 70.9 °F - 60.4 °F 69% 30.20 in 10.0 mi East 11.5 mph - N/A   Clear
6:55 PM 64.6 °F - 55.9 °F 74% 30.21 in 10.0 mi ENE 6.9 mph - N/A   Clear
7:55 PM 61.0 °F - 54.9 °F 80% 30.23 in 10.0 mi East 8.1 mph - N/A   Clear
8:55 PM 63.3 °F - 60.6 °F 91% 30.24 in 10.0 mi East 8.1 mph - N/A   Clear
9:55 PM 60.6 °F - 57.4 °F 89% 30.25 in 10.0 mi East 6.9 mph - N/A   Clear
10:55 PM 57.9 °F - 56.3 °F 94% 30.25 in 10.0 mi East 8.1 mph - N/A   Clear
11:55 PM 57.9 °F - 56.8 °F 96% 30.24 in 10.0 mi East 8.1 mph - N/A   Clear